Weather Roundup
Issued by NWS Chicago, IL

Home | Current Version | Previous Version | Graphics & Text | Print | Product List | Glossary On
Versions: 1 2 3 4 5 6 7 8 9 10 11 12 13 14 15 16 17 18 19 20 21 22 23 24 25 26 27 28 29 30 31 32 33 34 35 36 37 38 39 40 41 42 43 44 45 46 47 48 49 50
000
NZUS59 KLOT 111202
HRRLOT

CHICAGO AREA WEATHER ROUNDUP
NATIONAL WEATHER SERVICE CHICAGO/ROMEOVILLE IL
600 AM CST SUN DEC 11 2016

NOTE: "FAIR" INDICATES FEW OR NO CLOUDS BELOW 12,000 FEET WITH NO
SIGNIFICANT WEATHER AND/OR OBSTRUCTIONS TO VISIBILITY.

* THESE STATIONS ARE NOT UNDER NWS QUALITY CONTROL. THEY ALSO MAY NOT
  REPORT WEATHER SUCH AS PRECIPITATION OR FOG.

ILZ005-006-012>014-019>023-111300-
NORTHEAST ILLINOIS

CITY           SKY/WX    TMP DP  RH WIND       PRES   REMARKS
OHARE          CLOUDY    26  22  84 SE15      30.07F FOG     WCI  14
6HR MIN TEMP:  23; 6HR MAX TEMP:  26; 6HR PCP:  0.06;

MIDWAY         CLOUDY    27  21  78 SE12      30.09F WCI  17
6HR MIN TEMP:  25; 6HR MAX TEMP:  27; 6HR PCP:  0.02;

AURORA         CLOUDY    27  22  81 SE14      30.05F WCI  16
6HR MIN TEMP:  25; 6HR MAX TEMP:  27; 6HR PCP: TRACE;

LANSING*       FLURRIES  26  25  94 SE12      30.11F WCI  16
WAUKEGAN       LGT SNOW  29  25  85 S12G23    30.06F FOG     WCI  19
6HR MIN TEMP:  23; 6HR MAX TEMP:  29; 6HR PCP: TRACE;

DUPAGE AIRPORT CLOUDY    26  21  81 SE9       30.05F WCI  17
6HR MIN TEMP:  23; 6HR MAX TEMP:  26; 6HR PCP:  0.02;

WHEELING       LGT SNOW  25  22  88 SE9       30.08F FOG     WCI  15
6HR MIN TEMP:  23; 6HR MAX TEMP:  25; 6HR PCP:  0.02;

NORTHERLY ISL    N/A     27  24  89 S13         N/A  WCI  16
$$

WIZ051-052-058>065-066-070>072-111300-
SOUTHEAST WISCONSIN

CITY           SKY/WX    TMP DP  RH WIND       PRES   REMARKS
MILWAUKEE      LGT SNOW  28  24  85 S7        30.07F FOG     WCI  21
6HR MIN TEMP:  22; 6HR MAX TEMP:  28; 6HR PCP:  0.15;

KENOSHA*       LGT SNOW  28  24  85 S14       30.06F FOG     WCI  17
RACINE*        LGT SNOW  29  24  82 S12G21    30.08F WCI  19
WAUKESHA       LGT SNOW  21  19  93 S6        30.07F VSB 1   WCI  14
$$

INZ001>003-010>013-019-020-111300-
NORTHWEST INDIANA

CITY           SKY/WX    TMP DP  RH WIND       PRES   REMARKS
GARY*          CLOUDY    28  25  86 SE10      30.13F WCI  19
MICHIGAN CITY* NOT AVBL
RENSSELAER*    NOT AVBL
VALPARAISO     LGT SNOW  26  22  84 MISG      30.13F FOG
$$

LMZ740>746-111300-
SOUTHERN LAKE MICHIGAN

STATION/POSITION TIME  SKY/WX   TEMP WIND        PRES    VSBY
                                AIR  DIR/SP/G
                 (UTC)          (F)  (DEG/KT/KT) (MB)    (MI)
HARRISON CRIB    NOT AVBL
BURNHAM HARBOR   1200            27  150/  7/ 16   N/A
CALUMET HARBOR   1130            26  130/ 10/ 15 1019.2F
BURNS HARBOR     1140            26  150/ 12/ 20 1020.7F
MICHIGAN CITY    NOT AVBL
$$

ABBREVIATIONS USED IN REMARKS
   TC - TEMPERATURE IN CELSIUS
  WCI - WIND CHILL INDEX
   HX - HEAT INDEX
  VSB - VISIBILITY
$$




USA.gov is the U.S. government's official web portal to all federal, state and local government web resources and services.